Overview Statistics Trail Chart Weather Telemetry Raw packets
 

This is the latest recevied weather packets stored in our database for station/object K4KMJ. If no packets are shown the sender has not sent any weather packets the latest 10 day(s).

<< 15 16 17 18 19 20 21 >>
Time Temp. Humidity Pressure Rain* Wind** Luminosity Snow
1788559809 23.33° C 99% 1016.9 hPa 17.53 mm - 3 W/m² -
1788559509 22.78° C 99% 1016.7 hPa 30.73 mm - 3 W/m² -
1788559205 23.33° C 99% 1016.5 hPa 24.64 mm - 3 W/m² -
1788558899 24.44° C 99% 1016.2 hPa 22.1 mm - 4 W/m² -
1788558595 25.56° C 99% 1016 hPa 16.76 mm - 4 W/m² -
1788558290 25.56° C 99% 1016.2 hPa 3.56 mm - 3 W/m² -
1788557985 25.56° C 99% 1015.9 hPa 0.51 mm - 4 W/m² -
1788557678 26.11° C 97% 1015.9 hPa 0 mm - 4 W/m² -
1788557375 27.78° C 96% 1015.6 hPa 1.27 mm - 5 W/m² -
1788557074 28.89° C 96% 1015.5 hPa 4.83 mm - 10 W/m² -
1788556770 28.89° C 94% 1015.1 hPa 6.1 mm - 30 W/m² -
1788556470 29.44° C 92% 1015.2 hPa 3.56 mm - 31 W/m² -
1788556166 30.56° C 88% 1015.4 hPa 0 mm - 39 W/m² -
1788555864 30.56° C 87% 1015.5 hPa 0 mm - 56 W/m² -
1788555560 31.11° C 87% 1015.4 hPa 0 mm - 89 W/m² -
1788555256 31.11° C 86% 1015.3 hPa 0 mm - 128 W/m² -
1788554953 31.67° C 86% 1015.4 hPa 0 mm - 153 W/m² -
1788554648 31.11° C 86% 1015.5 hPa 0 mm - 338 W/m² -
1788554344 31.11° C 86% 1015.5 hPa 0 mm - 130 W/m² -
1788554041 31.11° C 86% 1015.3 hPa 0 mm - 102 W/m² -
1788553736 31.67° C 85% 1015.3 hPa 0 mm - 124 W/m² -
1788553432 31.67° C 84% 1015.1 hPa 0 mm - 246 W/m² -
1788553128 31.67° C 82% 1015.2 hPa 0 mm - 269 W/m² -
1788552828 32.78° C 75% 1015.3 hPa 0 mm - 177 W/m² -
1788552523 33.33° C 73% 1015.2 hPa 0 mm - 290 W/m² -

* Rain latest hour (hover to see other rain measurements)
** Current wind speed in m/s (hover to see current wind gust speed)